Tracking 19817 objects as of 20-Aug-2019
HD Live streaming from Space Station
objects crossing your sky now

CZ-3B DEB

Track CZ-3B DEB now!


NORAD ID: 42461
Int'l Code: 2010-042AC
Perigee: 1,305.9 km
Apogee: 43,458.8 km
Inclination: 22.0 °
Period: 808.7 minutes
Semi major axis: 28753 km
RCS: Unknown
Launch date: September 4, 2010
Source: People's Republic of China (PRC)
Launch site: Xichang Space Center, China (XSC)

Note: This is SATELLITE DEBRIS
aabbcc
Your satellite tracking list
Your tracking list is empty




NASA's NSSDC Master Catalog

Two Line Element Set (TLE):
1 42461U 10042AC  19231.56946202 -.00000001  00000-0  00000+0 0  9995
2 42461  22.0142 206.3693 7330074  34.6784 356.1071  1.78061557 35040
Source of the keplerian elements: AFSPC